Location: Unspecified
(43.4354°N, 0.0000°E)
Time: 21:30:03
(UTC+00:00)

S-56A Canister/Altair - Pass Details

Date: 28 June 2019
Orbit: 632 x 2500 km, 38.9° (Epoch: 18 July)

Event Time Altitude Azimuth Distance (km) Brightness Sun altitude
Rises 18:30:07 0° 278° (W) 4,661 13.3 11.2°
Reaches altitude 10° 18:33:56 10° 272° (W) 3,356 12.4 10.5°
Maximum altitude 18:41:02 37° 208° (SSW) 1,490 9.2 9.3°
Drops below altitude 10° 18:46:06 10° 142° (SE) 2,369 9.5 8.5°
Sets 18:48:21 0° 133° (SE) 3,153 10.1 8.1°
